Tiempo cada hora Aliağa

Hoy, 30 Julio, Viernes

Tiempo Temperatura Precipitaciones Viento Presión Humedad
00:00 +28°C° 0 mm 3 mps 752 mmHg 39%
01:00 +27°C° 0 mm 3 mps 752 mmHg 40%
02:00 +27°C° 0 mm 3 mps 752 mmHg 41%
03:00 +26°C° 0 mm 3 mps 752 mmHg 42%
04:00 +26°C° 0 mm 3 mps 752 mmHg 43%
05:00 +25°C° 0 mm 3 mps 752 mmHg 44%
06:00 +28°C° 0 mm 3 mps 752 mmHg 38%
07:00 +30°C° 0 mm 3 mps 752 mmHg 32%
08:00 +34°C° 0 mm 3 mps 752 mmHg 27%
09:00 +37°C° 0 mm 4 mps 752 mmHg 23%
10:00 +40°C° 0 mm 5 mps 752 mmHg 18%
11:00 +44°C° 0 mm 6 mps 751 mmHg 14%
12:00 +45°C° 0 mm 6 mps 751 mmHg 13%
13:00 +46°C° 0 mm 7 mps 751 mmHg 12%
14:00 +46°C° 0 mm 7 mps 750 mmHg 11%
15:00 +46°C° 0 mm 7 mps 750 mmHg 11%
16:00 +45°C° 0 mm 7 mps 750 mmHg 11%
17:00 +45°C° 0 mm 7 mps 749 mmHg 12%
18:00 +42°C° 0 mm 6 mps 750 mmHg 15%
19:00 +39°C° 0 mm 5 mps 750 mmHg 18%
20:00 +36°C° 0 mm 4 mps 750 mmHg 21%
21:00 +34°C° 0 mm 4 mps 750 mmHg 24%
22:00 +33°C° 0 mm 3 mps 751 mmHg 27%
23:00 +30°C° 0 mm 3 mps 751 mmHg 30%

Mañana, 31 Julio, Sábado

Tiempo Temperatura Precipitaciones Viento Presión Humedad
00:00 +30°C° 0 mm 2 mps 751 mmHg 31%
01:00 +29°C° 0 mm 2 mps 751 mmHg 31%
02:00 +29°C° 0 mm 2 mps 750 mmHg 32%
03:00 +29°C° 0 mm 2 mps 750 mmHg 33%
04:00 +28°C° 0 mm 2 mps 750 mmHg 34%
05:00 +28°C° 0 mm 2 mps 750 mmHg 35%
06:00 +30°C° 0 mm 2 mps 751 mmHg 30%
07:00 +34°C° 0 mm 2 mps 751 mmHg 26%
08:00 +36°C° 0 mm 2 mps 751 mmHg 22%
09:00 +38°C° 0 mm 2 mps 751 mmHg 19%
10:00 +40°C° 0 mm 2 mps 751 mmHg 17%
11:00 +43°C° 0 mm 3 mps 750 mmHg 15%
12:00 +44°C° 0 mm 3 mps 750 mmHg 14%
13:00 +44°C° 0 mm 4 mps 750 mmHg 14%
14:00 +46°C° 0 mm 5 mps 749 mmHg 14%
15:00 +45°C° 0 mm 5 mps 749 mmHg 15%
16:00 +43°C° 0 mm 5 mps 749 mmHg 16%
17:00 +42°C° 0 mm 6 mps 749 mmHg 17%
18:00 +40°C° 0 mm 4 mps 749 mmHg 21%
19:00 +36°C° 0 mm 3 mps 749 mmHg 25%
20:00 +34°C° 0 mm 2 mps 750 mmHg 29%
21:00 +32°C° 0 mm 2 mps 750 mmHg 30%
22:00 +32°C° 0 mm 2 mps 750 mmHg 31%
23:00 +31°C° 0 mm 2 mps 750 mmHg 32%

Pasado mañana, 1 Agosto, Domingo

Tiempo Temperatura Precipitaciones Viento Presión Humedad
00:00 +30°C° 0 mm 2 mps 750 mmHg 33%
01:00 +30°C° 0 mm 2 mps 750 mmHg 34%
02:00 +29°C° 0 mm 2 mps 750 mmHg 34%
03:00 +29°C° 0 mm 2 mps 751 mmHg 35%
04:00 +28°C° 0 mm 2 mps 751 mmHg 36%
05:00 +28°C° 0 mm 2 mps 751 mmHg 37%
06:00 +30°C° 0 mm 2 mps 751 mmHg 33%
07:00 +34°C° 0 mm 2 mps 751 mmHg 28%
08:00 +36°C° 0 mm 2 mps 751 mmHg 24%
09:00 +39°C° 0 mm 2 mps 751 mmHg 21%
10:00 +42°C° 0 mm 3 mps 751 mmHg 18%
11:00 +44°C° 0 mm 3 mps 751 mmHg 15%
12:00 +44°C° 0 mm 4 mps 751 mmHg 14%
13:00 +46°C° 0 mm 5 mps 750 mmHg 14%
14:00 +46°C° 0 mm 5 mps 750 mmHg 14%
15:00 +45°C° 0 mm 5 mps 750 mmHg 15%
16:00 +45°C° 0 mm 5 mps 750 mmHg 17%
17:00 +43°C° 0 mm 5 mps 750 mmHg 18%
18:00 +40°C° 0 mm 4 mps 750 mmHg 22%
19:00 +37°C° 0 mm 3 mps 750 mmHg 27%
20:00 +34°C° 0 mm 2 mps 751 mmHg 32%
21:00 +32°C° 0 mm 2 mps 751 mmHg 33%
22:00 +31°C° 0 mm 2 mps 751 mmHg 34%
23:00 +30°C° 0 mm 2 mps 751 mmHg 35%

2 Agosto, Lunes

Tiempo Temperatura Precipitaciones Viento Presión Humedad
00:00 +30°C° 0 mm 2 mps 751 mmHg 36%
01:00 +29°C° 0 mm 2 mps 751 mmHg 36%
02:00 +29°C° 0 mm 2 mps 751 mmHg 36%
03:00 +29°C° 0 mm 2 mps 751 mmHg 36%
04:00 +28°C° 0 mm 2 mps 751 mmHg 37%
05:00 +28°C° 0 mm 2 mps 751 mmHg 37%
06:00 +30°C° 0 mm 2 mps 751 mmHg 33%
07:00 +32°C° 0 mm 2 mps 752 mmHg 28%
08:00 +36°C° 0 mm 2 mps 752 mmHg 24%
09:00 +38°C° 0 mm 3 mps 752 mmHg 21%
10:00 +42°C° 0 mm 3 mps 751 mmHg 18%
11:00 +44°C° 0 mm 4 mps 751 mmHg 15%
12:00 +44°C° 0 mm 4 mps 751 mmHg 15%
13:00 +46°C° 0 mm 5 mps 751 mmHg 16%
14:00 +46°C° 0 mm 5 mps 750 mmHg 16%
15:00 +45°C° 0 mm 5 mps 750 mmHg 18%
16:00 +43°C° 0 mm 5 mps 750 mmHg 19%
17:00 +42°C° 0 mm 5 mps 750 mmHg 21%
18:00 +40°C° 0 mm 4 mps 750 mmHg 25%
19:00 +36°C° 0 mm 2 mps 750 mmHg 29%
20:00 +33°C° 0 mm 1 mps 750 mmHg 33%
21:00 +32°C° 0 mm 1 mps 751 mmHg 33%
22:00 +32°C° 0 mm 2 mps 751 mmHg 32%
23:00 +31°C° 0 mm 2 mps 751 mmHg 31%

3 Agosto, Martes

Tiempo Temperatura Precipitaciones Viento Presión Humedad
00:00 +31°C° 0 mm 1 mps 751 mmHg 32%
01:00 +30°C° 0 mm 1 mps 751 mmHg 33%
02:00 +30°C° 0 mm 1 mps 751 mmHg 34%
03:00 +29°C° 0 mm 1 mps 751 mmHg 33%
04:00 +29°C° 0 mm 1 mps 751 mmHg 32%
05:00 +29°C° 0 mm 1 mps 751 mmHg 31%
06:00 +31°C° 0 mm 1 mps 751 mmHg 28%
07:00 +34°C° 0 mm 1 mps 752 mmHg 25%
08:00 +37°C° 0 mm 2 mps 752 mmHg 22%
09:00 +39°C° 0 mm 2 mps 752 mmHg 20%
10:00 +41°C° 0 mm 2 mps 752 mmHg 17%
11:00 +44°C° 0 mm 3 mps 751 mmHg 15%
12:00 +45°C° 0 mm 4 mps 751 mmHg 15%
13:00 +45°C° 0 mm 4 mps 751 mmHg 14%
14:00 +47°C° 0 mm 5 mps 750 mmHg 14%
15:00 +46°C° 0 mm 6 mps 750 mmHg 14%
16:00 +46°C° 0 mm 7 mps 750 mmHg 15%
17:00 +45°C° 0 mm 8 mps 750 mmHg 15%
18:00 +41°C° 0 mm 7 mps 751 mmHg 23%
19:00 +38°C° 0 mm 6 mps 752 mmHg 30%
20:00 +34°C° 0 mm 6 mps 752 mmHg 37%
21:00 +33°C° 0 mm 5 mps 753 mmHg 44%
22:00 +30°C° 0 mm 5 mps 753 mmHg 50%
23:00 +28°C° 0 mm 4 mps 753 mmHg 56%

4 Agosto, Miércoles

Tiempo Temperatura Precipitaciones Viento Presión Humedad
00:00 +27°C° 0 mm 4 mps 753 mmHg 58%
01:00 +27°C° 0 mm 4 mps 754 mmHg 60%
02:00 +26°C° 0 mm 3 mps 754 mmHg 62%
03:00 +26°C° 0 mm 3 mps 754 mmHg 63%
04:00 +25°C° 0 mm 3 mps 754 mmHg 64%
05:00 +25°C° 0 mm 3 mps 754 mmHg 64%
06:00 +27°C° 0 mm 3 mps 754 mmHg 56%
07:00 +30°C° 0 mm 4 mps 754 mmHg 47%
08:00 +33°C° 0 mm 4 mps 754 mmHg 39%
09:00 +36°C° 0 mm 4 mps 754 mmHg 31%
10:00 +40°C° 0 mm 5 mps 754 mmHg 24%
11:00 +43°C° 0 mm 5 mps 754 mmHg 17%
12:00 +45°C° 0 mm 6 mps 753 mmHg 15%
13:00 +46°C° 0 mm 6 mps 753 mmHg 13%
14:00 +47°C° 0 mm 7 mps 752 mmHg 11%
15:00 +47°C° 0 mm 7 mps 752 mmHg 11%
16:00 +46°C° 0 mm 7 mps 752 mmHg 11%
17:00 +45°C° 0 mm 7 mps 752 mmHg 12%
18:00 +41°C° 0 mm 6 mps 752 mmHg 15%
19:00 +37°C° 0 mm 4 mps 752 mmHg 18%
20:00 +34°C° 0 mm 3 mps 753 mmHg 22%
21:00 +33°C° 0 mm 3 mps 753 mmHg 25%
22:00 +31°C° 0 mm 3 mps 753 mmHg 28%
23:00 +30°C° 0 mm 3 mps 753 mmHg 31%
Mostrar más

Necesitamos Su Consentimiento

Meteoprog y nuestros Proveedores de Servicios pueden almacenar y acceder a sus datos personales como cookies, identificadores de dispositivo u otras tecnologías similares de su dispositivo y procesar dichos datos para personalizar contenido y anuncios, además de ofrecer funciones de redes sociales y analizar el tráfico.

  • Almacenar y/o acceder a información en su dispositivo

    Se puede almacenar o acceder a cookies, identificadores de dispositivo u otra información de su dispositivo para los fines anteriormente indicados.

  • Anuncios y contenido personalizados, medición de anuncios y contenido, percepciones del público, y desarrollo de productos

    Los anuncios y el contenido pueden personalizarse en base a su perfil. Se pueden añadir más datos para personalizar mejor los anuncios y contenidos. Se puede medir el rendimiento de los anuncios y contenidos. Se puede obtener la percepción sobre el público que ha visto los anuncios y contenidos. Dichos datos pueden usarse para desarrollar o mejorar la experiencia del usuario, sistemas y software.

Al hacer clic en ‘Estoy De Acuerdo’ usted permitirá el uso de las cookies, identificadores de dispositivo, balizas web u otras tecnologías similares indicadas. Su configuración puede cambiarse desde el navegador de su dispositivo.

Para ciertos fines, los intereses legítimos pueden ser considerados por encima del consentimiento. Puede leer más sobre ello en nuestra Política de Privacidad y Cookies.